Weather History for Warrensburg, MO

Change the Weather History Date:

Tuesday, February 26, 2013

  Actual Average (KSZL) Record (KSZL)
Temperature  
Mean Temperature 32 °F -  
Max Temperature 33 °F 43 °F 68 °F (2009)
Min Temperature 32 °F 27 °F 6 °F (2014)
Degree Days  
Heating Degree Days 32    
Moisture  
Dew Point 31 °F    
Average Humidity 95    
Maximum Humidity 100    
Minimum Humidity 87    
Precipitation  
Precipitation 0.00 in - - ()
Sea Level Pressure  
Sea Level Pressure 29.61 in    
Wind  
Wind Speed 13 mph (NNW)    
Max Wind Speed 18 mph    
Max Gust Speed 24 mph    
Visibility 6 miles    
Events Snow    
Averages and records for this station are not official NWS values.
T = Trace of Precipitation, MM = Missing Value Source: NWS Daily Summary

Daily Weather History Graph

Daily Weather History Graph

Search for Another Location

Airport:

Trip Planner

Search our weather history database for the weather conditions in past years. The results will help you decide how hot, cold, wet, or windy it might be!

Date:

Astronomy

Feb. 26, 2013 Rise Set
Actual Time 6:51 AM CST 6:05 PM CST
Civil Twilight 6:24 AM CST 6:32 PM CST
Nautical Twilight 5:53 AM CST 7:02 PM CST
Astronomical Twilight 5:23 AM CST 7:33 PM CST
Moon 7:21 PM CST (2/26) 6:55 AM CST (2/26)
Length of Visible Light 12h 07m
Length of Day
11h 13m
Full, 99% of the Moon is Illuminated
Feb 26
Full
Mar 4
Last Quarter
Mar 11
New
Mar 19
First Quarter
Mar 27
Full

Hourly Weather History & Observations

Time (CST) Temp. Windchill Dew Point Humidity Pressure Visibility Wind Dir Wind Speed Gust Speed Precip Events Conditions
12:15 AM 32.0 °F 21.6 °F 32.0 °F 100% 29.61 in 1.5 mi North 15.0 mph - N/A Snow Light Snow
12:35 AM 32.0 °F 22.1 °F 32.0 °F 100% 29.59 in 2.5 mi NNE 13.8 mph 19.6 mph N/A Snow Light Snow
12:55 AM 32.0 °F 21.2 °F 32.0 °F 100% 29.57 in 3.0 mi NNE 16.1 mph - N/A Snow Light Snow
1:15 AM 32.0 °F 20.5 °F 32.0 °F 100% 29.55 in 2.5 mi North 18.4 mph 23.0 mph N/A Snow Light Snow
1:35 AM 32.0 °F 20.8 °F 32.0 °F 100% 29.54 in 1.2 mi North 17.3 mph 21.9 mph N/A Snow Light Snow
2:15 AM 32.0 °F 20.8 °F 32.0 °F 100% 29.52 in 2.0 mi North 17.3 mph 23.0 mph N/A Snow Light Snow
2:35 AM 32.0 °F 21.6 °F 32.0 °F 100% 29.52 in 1.8 mi North 15.0 mph 18.4 mph N/A Snow Light Snow
2:55 AM 32.0 °F 21.2 °F 32.0 °F 100% 29.51 in 2.0 mi North 16.1 mph 21.9 mph N/A Snow Light Snow
3:15 AM 32.0 °F 21.6 °F 32.0 °F 100% 29.49 in 2.0 mi North 15.0 mph 18.4 mph N/A Snow Light Snow
3:35 AM 32.0 °F 23.0 °F 32.0 °F 100% 29.48 in 1.8 mi North 11.5 mph 19.6 mph N/A Snow Light Snow
3:55 AM 32.0 °F 22.1 °F 32.0 °F 100% 29.47 in 1.5 mi North 13.8 mph 20.7 mph N/A Snow Light Snow
4:15 AM 32.0 °F 23.0 °F 32.0 °F 100% 29.47 in 1.5 mi North 11.5 mph 18.4 mph N/A Snow Light Snow
4:35 AM 32.0 °F 23.0 °F 32.0 °F 100% 29.47 in 1.8 mi North 11.5 mph 20.7 mph N/A Snow Light Snow
4:55 AM 32.0 °F 23.0 °F 32.0 °F 100% 29.47 in 1.5 mi North 11.5 mph 20.7 mph N/A Snow Light Snow
5:15 AM 32.0 °F 24.2 °F 32.0 °F 100% 29.48 in 1.5 mi North 9.2 mph 17.3 mph N/A Snow Light Snow
5:35 AM 32.0 °F 22.1 °F 32.0 °F 100% 29.48 in 1.0 mi North 13.8 mph 17.3 mph N/A Snow Light Snow
5:55 AM 32.0 °F 22.5 °F 32.0 °F 100% 29.48 in 1.5 mi North 12.7 mph 18.4 mph N/A Snow Light Snow
6:15 AM 32.0 °F 23.0 °F 32.0 °F 100% 29.48 in 1.2 mi North 11.5 mph - N/A Snow Light Snow
6:35 AM 32.0 °F 22.5 °F 32.0 °F 100% 29.48 in 1.0 mi NNW 12.7 mph - N/A Snow Light Snow
6:55 AM 32.0 °F 22.5 °F 32.0 °F 100% 29.48 in 1.2 mi North 12.7 mph 18.4 mph N/A Snow Light Snow
7:15 AM 32.0 °F 22.5 °F 32.0 °F 100% 29.49 in 0.8 mi North 12.7 mph 19.6 mph N/A Snow Light Snow
7:35 AM 32.0 °F 22.5 °F 32.0 °F 100% 29.49 in 1.2 mi North 12.7 mph - N/A Snow Light Snow
7:55 AM 32.0 °F 22.5 °F 32.0 °F 100% 29.50 in 1.2 mi North 12.7 mph 18.4 mph N/A Snow Light Snow
8:15 AM 32.0 °F 23.0 °F 32.0 °F 100% 29.51 in 1.5 mi North 11.5 mph - N/A Snow Light Snow
8:55 AM 32.0 °F 22.1 °F 32.0 °F 100% 29.51 in 2.0 mi North 13.8 mph - N/A Snow Light Snow
9:15 AM 32.0 °F 23.6 °F 32.0 °F 100% 29.51 in 3.0 mi North 10.4 mph 19.6 mph N/A   Overcast
9:35 AM 32.0 °F 23.6 °F 30.2 °F 93% 29.51 in 2.0 mi North 10.4 mph 17.3 mph N/A Snow Light Snow
9:55 AM 32.0 °F 23.6 °F 30.2 °F 93% 29.52 in 4.0 mi North 10.4 mph 17.3 mph N/A Snow Light Snow
10:15 AM 32.0 °F 22.5 °F 30.2 °F 93% 29.52 in 5.0 mi North 12.7 mph - N/A   Overcast
10:35 AM 32.0 °F 23.6 °F 30.2 °F 93% 29.52 in 10.0 mi NNW 10.4 mph - N/A   Overcast
10:55 AM 32.0 °F 23.6 °F 30.2 °F 93% 29.53 in 10.0 mi North 10.4 mph - N/A   Overcast
11:15 AM 32.0 °F 23.0 °F 30.2 °F 93% 29.54 in 10.0 mi NNW 11.5 mph 16.1 mph N/A   Overcast
11:35 AM 32.0 °F 24.2 °F 30.2 °F 93% 29.55 in 10.0 mi NNW 9.2 mph 17.3 mph N/A   Overcast
11:55 AM 32.0 °F 24.8 °F 30.2 °F 93% 29.56 in 10.0 mi NNW 8.1 mph - N/A   Overcast
12:15 PM 32.0 °F 24.2 °F 30.2 °F 93% 29.57 in 10.0 mi NNW 9.2 mph - N/A   Overcast
12:35 PM 33.8 °F 27.0 °F 30.2 °F 87% 29.57 in 10.0 mi NNW 8.1 mph - N/A   Overcast
12:55 PM 33.8 °F 27.0 °F 30.2 °F 87% 29.58 in 10.0 mi NW 8.1 mph - N/A   Overcast
1:15 PM 33.8 °F 27.0 °F 30.2 °F 87% 29.58 in 10.0 mi NNW 8.1 mph - N/A   Overcast
1:35 PM 33.8 °F 23.5 °F 30.2 °F 87% 29.58 in 10.0 mi NNW 16.1 mph 20.7 mph N/A   Overcast
1:55 PM 33.8 °F 23.5 °F 30.2 °F 87% 29.58 in 10.0 mi NNW 16.1 mph 20.7 mph N/A   Overcast
2:35 PM 33.8 °F 23.5 °F 30.2 °F 87% 29.60 in 10.0 mi NNW 16.1 mph 24.2 mph N/A   Overcast
2:55 PM 33.8 °F 24.3 °F 30.2 °F 87% 29.60 in 10.0 mi NNW 13.8 mph 23.0 mph N/A   Overcast
3:15 PM 33.8 °F 23.5 °F 30.2 °F 87% 29.61 in 10.0 mi NW 16.1 mph 19.6 mph N/A   Overcast
3:35 PM 32.0 °F 23.6 °F 30.2 °F 93% 29.63 in 10.0 mi NW 10.4 mph 21.9 mph N/A   Overcast
3:55 PM 32.0 °F 22.5 °F 30.2 °F 93% 29.63 in 10.0 mi NW 12.7 mph 18.4 mph N/A   Overcast
4:15 PM 32.0 °F 23.6 °F 30.2 °F 93% 29.64 in 10.0 mi NW 10.4 mph 18.4 mph N/A   Overcast
4:35 PM 32.0 °F 22.1 °F 30.2 °F 93% 29.65 in 10.0 mi NW 13.8 mph 17.3 mph N/A   Overcast
4:55 PM 32.0 °F 23.0 °F 30.2 °F 93% 29.66 in 10.0 mi NW 11.5 mph 18.4 mph N/A   Overcast
5:15 PM 32.0 °F 23.0 °F 30.2 °F 93% 29.67 in 10.0 mi NW 11.5 mph 19.6 mph N/A   Overcast
5:35 PM 32.0 °F 21.6 °F 30.2 °F 93% 29.68 in 10.0 mi NW 15.0 mph - N/A   Overcast
6:15 PM 32.0 °F 24.2 °F 30.2 °F 93% 29.70 in 10.0 mi NW 9.2 mph 19.6 mph N/A   Overcast
6:35 PM 32.0 °F 23.6 °F 30.2 °F 93% 29.72 in 10.0 mi NNW 10.4 mph - N/A   Overcast
6:55 PM 32.0 °F 23.6 °F 30.2 °F 93% 29.72 in 10.0 mi NNW 10.4 mph - N/A   Overcast
7:15 PM 32.0 °F 23.0 °F 30.2 °F 93% 29.73 in 10.0 mi NW 11.5 mph - N/A   Overcast
7:35 PM 32.0 °F 24.8 °F 30.2 °F 93% 29.74 in 5.0 mi NW 8.1 mph - N/A Snow Light Snow
7:55 PM 32.0 °F 24.2 °F 30.2 °F 93% 29.75 in 5.0 mi NW 9.2 mph - N/A Snow Light Snow
8:15 PM 32.0 °F 24.2 °F 30.2 °F 93% 29.75 in 10.0 mi NW 9.2 mph - N/A   Overcast
8:35 PM 32.0 °F 24.2 °F 30.2 °F 93% 29.77 in 10.0 mi WNW 9.2 mph - N/A   Overcast
8:55 PM 32.0 °F 24.8 °F 30.2 °F 93% 29.78 in 10.0 mi WNW 8.1 mph - N/A   Overcast
9:15 PM 32.0 °F 24.2 °F 30.2 °F 93% 29.79 in 10.0 mi WNW 9.2 mph - N/A   Overcast
9:35 PM 32.0 °F 24.8 °F 30.2 °F 93% 29.80 in 5.0 mi WNW 8.1 mph - N/A Snow Light Snow
9:55 PM 32.0 °F 24.8 °F 30.2 °F 93% 29.81 in 5.0 mi West 8.1 mph - N/A Snow Light Snow
10:15 PM 32.0 °F 23.0 °F 30.2 °F 93% 29.81 in 7.0 mi West 11.5 mph - N/A Snow Light Snow
10:35 PM 32.0 °F 24.2 °F 30.2 °F 93% 29.81 in 7.0 mi West 9.2 mph - N/A Snow Light Snow
10:55 PM 32.0 °F 24.2 °F 30.2 °F 93% 29.81 in 7.0 mi WNW 9.2 mph - N/A   Overcast
11:15 PM 32.0 °F 22.5 °F 30.2 °F 93% 29.82 in 7.0 mi West 12.7 mph - N/A Snow Light Snow
11:35 PM 32.0 °F 23.0 °F 30.2 °F 93% 29.82 in 7.0 mi WNW 11.5 mph - N/A Snow Light Snow
11:55 PM 32.0 °F 23.0 °F 30.2 °F 93% 29.81 in 7.0 mi WNW 11.5 mph - N/A   Overcast